Location: Ch�tillon
(48.8024°N, 2.2935°E)
Time: 17:28:58
(UTC+00:00)

RS-15 - Pass Details

Date: 06 July 2022
Orbit: 1881 x 2163 km, 64.8° (Epoch: 11 August)

Event Time Altitude Azimuth Distance (km) Brightness Sun altitude
Rises 01:07:37 0° 319° (NW) 5,697 10.9 -16.7°
Reaches altitude 10° 01:12:29 10° 304° (NW) 4,673 10.2 -16.5°
Maximum altitude 01:20:02 19° 265° (W) 3,897 9.4 -16.0°
Enters shadow 01:26:10 13° 231° (SW) 4,351 9.3 -15.7°
